| time (UTC) | temp F | wind direction | speed MPH | gust MPH | rain 1hr in | rain 24hr in | rain mn in | humidity % | barometer mb |
| 20260504213503 | 68 | 222 | 2.0 | 8.0 | 0.00 | 0.00 | 0.00 | 63 | 1011.5 |
| 20260504212504 | 68 | 176 | 1.0 | 5.0 | 0.00 | 0.00 | 0.00 | 65 | 1011.5 |
| 20260504212004 | 67 | 257 | 0.0 | 2.0 | 0.00 | 0.00 | 0.00 | 64 | 1011.5 |
| 20260504211504 | 68 | 203 | 0.0 | 2.0 | 0.00 | 0.00 | 0.00 | 65 | 1012.5 |
| 20260504211004 | 67 | 211 | 0.0 | 2.0 | 0.00 | 0.00 | 0.00 | 67 | 1012.5 |
| 20260504210504 | 66 | 246 | 0.0 | 7.0 | 0.00 | 0.00 | 0.00 | 66 | 1012.5 |
| 20260504210004 | 66 | 155 | 0.0 | 7.0 | 0.00 | 0.00 | 0.00 | 69 | 1012.5 |
| 20260504205004 | 65 | 159 | 4.0 | 9.0 | 0.00 | 0.00 | 0.00 | 67 | 1012.5 |
| 20260504204503 | 65 | 198 | 2.0 | 12.0 | 0.00 | 0.00 | 0.00 | 67 | 1012.5 |
| 20260504203004 | 65 | 139 | 3.0 | 12.0 | 0.00 | 0.00 | 0.00 | 68 | 1012.5 |
| 20260504202505 | 65 | 216 | 3.0 | 12.0 | 0.00 | 0.00 | 0.00 | 69 | 1012.5 |
| 20260504202003 | 65 | 219 | 1.0 | 5.0 | 0.00 | 0.00 | 0.00 | 71 | 1012.5 |
| 20260504201504 | 64 | 250 | 0.0 | 6.0 | 0.00 | 0.00 | 0.00 | 70 | 1012.5 |
| 20260504200503 | 64 | 249 | 0.0 | 7.0 | 0.00 | 0.00 | 0.00 | 71 | 1012.5 |
| 20260504200004 | 63 | 191 | 1.0 | 7.0 | 0.00 | 0.00 | 0.00 | 71 | 1012.5 |
| 20260504195504 | 63 | 183 | 1.0 | 8.0 | 0.00 | 0.00 | 0.00 | 71 | 1012.5 |
| 20260504195004 | 63 | 267 | 3.0 | 8.0 | 0.00 | 0.00 | 0.00 | 72 | 1012.5 |
| 20260504194503 | 63 | 218 | 1.0 | 7.0 | 0.00 | 0.00 | 0.00 | 72 | 1012.5 |
| 20260504194004 | 63 | 218 | 0.0 | 9.0 | 0.00 | 0.00 | 0.00 | 73 | 1012.5 |
| 20260504193503 | 62 | 228 | 0.0 | 12.0 | 0.00 | 0.00 | 0.00 | 73 | 1012.5 |
| 20260504193007 | 62 | 181 | 6.0 | 12.0 | 0.00 | 0.00 | 0.00 | 73 | 1012.5 |
| 20260504192006 | 61 | 139 | 3.0 | 8.0 | 0.00 | 0.00 | 0.00 | 74 | 1012.5 |
| 20260504191507 | 61 | 290 | 0.0 | 10.0 | 0.00 | 0.00 | 0.00 | 74 | 1012.5 |
| 20260504191007 | 61 | 148 | 5.0 | 10.0 | 0.00 | 0.00 | 0.00 | 75 | 1012.5 |
| 20260504190007 | 60 | 221 | 2.0 | 8.0 | 0.00 | 0.00 | 0.00 | 75 | 1012.5 |
| 20260504185507 | 59 | 180 | 1.0 | 8.0 | 0.00 | 0.00 | 0.00 | 76 | 1012.5 |
| 20260504185007 | 60 | 215 | 1.0 | 8.0 | 0.00 | 0.00 | 0.00 | 76 | 1012.5 |
| 20260504184507 | 59 | 207 | 0.0 | 7.0 | 0.00 | 0.00 | 0.00 | 78 | 1012.5 |
| 20260504184007 | 59 | 188 | 1.0 | 7.0 | 0.00 | 0.00 | 0.00 | 78 | 1012.5 |
| 20260504183507 | 59 | 195 | 3.0 | 10.0 | 0.00 | 0.00 | 0.00 | 78 | 1012.5 |
| 20260504182507 | 58 | 105 | 0.0 | 6.0 | 0.00 | 0.00 | 0.00 | 79 | 1012.5 |
| 20260504182006 | 58 | 188 | 2.0 | 6.0 | 0.00 | 0.00 | 0.00 | 79 | 1012.5 |
| 20260504181506 | 58 | 242 | 1.0 | 6.0 | 0.00 | 0.00 | 0.00 | 79 | 1011.5 |
| 20260504180506 | 58 | 252 | 0.0 | 3.0 | 0.00 | 0.00 | 0.00 | 80 | 1011.5 |
| 20260504180006 | 57 | 249 | 0.0 | 8.0 | 0.00 | 0.00 | 0.00 | 80 | 1012.5 |
| 20260504175506 | 57 | 217 | 2.0 | 8.0 | 0.00 | 0.00 | 0.00 | 80 | 1012.5 |
| 20260504175006 | 57 | 214 | 1.0 | 12.0 | 0.00 | 0.00 | 0.00 | 81 | 1012.5 |
| 20260504174507 | 57 | 204 | 3.0 | 12.0 | 0.00 | 0.00 | 0.00 | 81 | 1012.5 |
| 20260504174006 | 57 | 197 | 1.0 | 6.0 | 0.00 | 0.00 | 0.00 | 81 | 1012.5 |
| 20260504173506 | 57 | 215 | 0.0 | 6.0 | 0.00 | 0.00 | 0.00 | 82 | 1012.5 |
| 20260504173007 | 57 | 149 | 0.0 | 8.0 | 0.00 | 0.00 | 0.00 | 82 | 1012.5 |
| 20260504172506 | 57 | 219 | 0.0 | 8.0 | 0.00 | 0.00 | 0.00 | 82 | 1012.5 |
| 20260504172008 | 56 | 161 | 2.0 | 12.0 | 0.00 | 0.00 | 0.00 | 83 | 1012.5 |
| 20260504171507 | 56 | 191 | 2.0 | 12.0 | 0.00 | 0.00 | 0.00 | 82 | 1011.5 |
| 20260504171007 | 56 | 160 | 2.0 | 6.0 | 0.00 | 0.00 | 0.00 | 83 | 1011.5 |
| 20260504170506 | 56 | 222 | 1.0 | 6.0 | 0.00 | 0.00 | 0.00 | 83 | 1011.5 |
| 20260504151006 | 54 | 167 | 2.0 | 12.0 | 0.00 | 0.00 | 0.00 | 86 | 1012.5 |
| 20260504150506 | 53 | 230 | 3.0 | 7.0 | 0.00 | 0.00 | 0.00 | 86 | 1012.5 |
| 20260504141006 | 53 | 225 | 1.0 | 6.0 | 0.00 | 0.00 | 0.00 | 88 | 1011.5 |
| 20260504130506 | 53 | 206 | 3.0 | 8.0 | 0.00 | 0.00 | 0.00 | 87 | 1010.5 |
| 20260504110506 | 58 | 222 | 5.0 | 9.0 | 0.00 | 0.00 | 0.00 | 72 | 1009.5 |
| 20260504081505 | 68 | 305 | 0.0 | 0.0 | 0.00 | 0.00 | 0.00 | 43 | 1008.5 |
| 20260504081006 | 68 | 305 | 0.0 | 0.0 | 0.00 | 0.00 | 0.00 | 43 | 1008.5 |
| 20260504050505 | 74 | 260 | 0.0 | 0.0 | 0.00 | 0.00 | 0.00 | 39 | 1008.5 |
| 20260504050005 | 74 | 260 | 0.0 | 0.0 | 0.00 | 0.00 | 0.00 | 39 | 1008.5 |
| 20260504045505 | 74 | 282 | 0.0 | 0.0 | 0.00 | 0.00 | 0.00 | 39 | 1008.5 |
| 20260504045004 | 74 | 305 | 0.0 | 0.0 | 0.00 | 0.00 | 0.00 | 39 | 1008.5 |
| 20260504044005 | 74 | 256 | 0.0 | 0.0 | 0.00 | 0.00 | 0.00 | 39 | 1007.5 |
| 20260504043505 | 75 | 265 | 0.0 | 0.0 | 0.00 | 0.00 | 0.00 | 39 | 1007.5 |
| 20260504043005 | 75 | 292 | 0.0 | 0.0 | 0.00 | 0.00 | 0.00 | 39 | 1007.5 |
| 20260504042505 | 75 | 260 | 0.0 | 0.0 | 0.00 | 0.00 | 0.00 | 38 | 1007.5 |
| 20260504042005 | 76 | 260 | 0.0 | 0.0 | 0.00 | 0.00 | 0.00 | 38 | 1007.5 |
| 20260504041505 | 76 | 260 | 0.0 | 0.0 | 0.00 | 0.00 | 0.00 | 38 | 1007.5 |
| 20260504041005 | 76 | 238 | 0.0 | 0.0 | 0.00 | 0.00 | 0.00 | 38 | 1007.5 |
| 20260504040505 | 76 | 238 | 0.0 | 0.0 | 0.00 | 0.00 | 0.00 | 37 | 1007.5 |
| 20260504040004 | 76 | 238 | 0.0 | 0.0 | 0.00 | 0.00 | 0.00 | 37 | 1007.5 |
| 20260504035504 | 77 | 238 | 0.0 | 0.0 | 0.00 | 0.00 | 0.00 | 37 | 1007.5 |
| 20260504035006 | 77 | 238 | 0.0 | 0.0 | 0.00 | 0.00 | 0.00 | 36 | 1007.5 |
| 20260504034505 | 77 | 238 | 0.0 | 0.0 | 0.00 | 0.00 | 0.00 | 36 | 1006.5 |
| 20260504034004 | 77 | 238 | 0.0 | 0.0 | 0.00 | 0.00 | 0.00 | 36 | 1006.5 |
| 20260504033505 | 78 | 238 | 0.0 | 0.0 | 0.00 | 0.00 | 0.00 | 36 | 1006.5 |
| 20260504033005 | 78 | 238 | 0.0 | 0.0 | 0.00 | 0.00 | 0.00 | 36 | 1006.5 |
| 20260504032505 | 78 | 238 | 0.0 | 0.0 | 0.00 | 0.00 | 0.00 | 36 | 1006.5 |
| 20260504032005 | 78 | 238 | 0.0 | 0.0 | 0.00 | 0.00 | 0.00 | 36 | 1006.5 |
| 20260504031505 | 79 | 238 | 0.0 | 0.0 | 0.00 | 0.00 | 0.00 | 35 | 1006.5 |
| 20260504030504 | 79 | 238 | 0.0 | 0.0 | 0.00 | 0.00 | 0.00 | 35 | 1006.5 |
| 20260504030005 | 79 | 305 | 0.0 | 0.0 | 0.00 | 0.00 | 0.00 | 35 | 1006.5 |
| 20260504025505 | 80 | 305 | 0.0 | 0.0 | 0.00 | 0.00 | 0.00 | 35 | 1006.5 |
| 20260504025004 | 80 | 300 | 0.0 | 0.0 | 0.00 | 0.00 | 0.00 | 35 | 1006.5 |
| 20260504024006 | 80 | 238 | 0.0 | 0.0 | 0.00 | 0.00 | 0.00 | 35 | 1006.5 |
| 20260504023504 | 81 | 238 | 0.0 | 0.0 | 0.00 | 0.00 | 0.00 | 34 | 1006.5 |
| 20260504023004 | 81 | 305 | 0.0 | 0.0 | 0.00 | 0.00 | 0.00 | 35 | 1006.5 |
| 20260504022505 | 81 | 305 | 0.0 | 0.0 | 0.00 | 0.00 | 0.00 | 34 | 1006.5 |
| 20260504022004 | 81 | 305 | 0.0 | 0.0 | 0.00 | 0.00 | 0.00 | 34 | 1006.5 |
| 20260504021505 | 81 | 305 | 0.0 | 0.0 | 0.00 | 0.00 | 0.00 | 34 | 1006.5 |
| 20260504021005 | 82 | 305 | 0.0 | 0.0 | 0.00 | 0.00 | 0.00 | 34 | 1006.5 |
| 20260504020505 | 82 | 260 | 0.0 | 0.0 | 0.00 | 0.00 | 0.00 | 34 | 1006.5 |
| 20260504020005 | 83 | 200 | 0.0 | 0.0 | 0.00 | 0.00 | 0.00 | 34 | 1006.5 |
| 20260504015505 | 83 | 305 | 0.0 | 0.0 | 0.00 | 0.00 | 0.00 | 33 | 1006.5 |
| 20260504015004 | 83 | 305 | 0.0 | 0.0 | 0.00 | 0.00 | 0.00 | 33 | 1006.5 |
| 20260504014505 | 83 | 305 | 0.0 | 0.0 | 0.00 | 0.00 | 0.00 | 34 | 1006.5 |
| 20260504014005 | 84 | 260 | 0.0 | 0.0 | 0.00 | 0.00 | 0.00 | 33 | 1006.5 |
| 20260504013005 | 84 | 305 | 0.0 | 0.0 | 0.00 | 0.00 | 0.00 | 33 | 1006.5 |
| 20260504012504 | 85 | 238 | 0.0 | 0.0 | 0.00 | 0.00 | 0.00 | 33 | 1006.5 |
| 20260504012004 | 85 | 305 | 0.0 | 0.0 | 0.00 | 0.00 | 0.00 | 33 | 1006.5 |
| 20260504011504 | 85 | 260 | 0.0 | 0.0 | 0.00 | 0.00 | 0.00 | 33 | 1006.5 |
| 20260504011004 | 85 | 260 | 0.0 | 0.0 | 0.00 | 0.00 | 0.00 | 33 | 1006.5 |
| 20260504010504 | 85 | 156 | 0.0 | 0.0 | 0.00 | 0.00 | 0.00 | 33 | 1006.5 |
| 20260504010004 | 86 | 114 | 0.0 | 0.0 | 0.00 | 0.00 | 0.00 | 33 | 1007.5 |
| 20260504005504 | 86 | 305 | 0.0 | 0.0 | 0.00 | 0.00 | 0.00 | 33 | 1007.5 |
| 20260504005004 | 86 | 305 | 0.0 | 0.0 | 0.00 | 0.00 | 0.00 | 32 | 1007.5 |
| 20260504004504 | 86 | 62 | 0.0 | 0.0 | 0.00 | 0.00 | 0.00 | 32 | 1007.5 |
| 20260504004004 | 86 | 307 | 0.0 | 0.0 | 0.00 | 0.00 | 0.00 | 32 | 1007.5 |
| 20260504003504 | 86 | 254 | 0.0 | 0.0 | 0.00 | 0.00 | 0.00 | 33 | 1007.5 |
| 20260504002504 | 87 | 282 | 0.0 | 0.0 | 0.00 | 0.00 | 0.00 | 33 | 1007.5 |
| 20260504002004 | 87 | 35 | 0.0 | 0.0 | 0.00 | 0.00 | 0.00 | 33 | 1007.5 |
| 20260504001504 | 87 | 102 | 0.0 | 0.0 | 0.00 | 0.00 | 0.00 | 33 | 1007.5 |
| 20260504001005 | 87 | 35 | 0.0 | 0.0 | 0.00 | 0.00 | 0.00 | 33 | 1007.5 |
| 20260503235504 | 88 | 305 | 0.0 | 0.0 | 0.00 | 0.00 | 0.00 | 32 | 1007.5 |
| 20260503235005 | 88 | 95 | 0.0 | 0.0 | 0.00 | 0.00 | 0.00 | 32 | 1007.5 |
| 20260503234504 | 88 | 305 | 0.0 | 0.0 | 0.00 | 0.00 | 0.00 | 32 | 1007.5 |
| 20260503234006 | 88 | 86 | 0.0 | 0.0 | 0.00 | 0.00 | 0.00 | 33 | 1007.5 |
| 20260503233004 | 90 | 96 | 0.0 | 0.0 | 0.00 | 0.00 | 0.00 | 33 | 1008.5 |
| 20260503232504 | 90 | 80 | 0.0 | 0.0 | 0.00 | 0.00 | 0.00 | 33 | 1008.5 |
| 20260503232005 | 90 | 72 | 0.0 | 0.0 | 0.00 | 0.00 | 0.00 | 32 | 1008.5 |
| 20260503231504 | 91 | 52 | 0.0 | 0.0 | 0.00 | 0.00 | 0.00 | 32 | 1008.5 |
| 20260503231004 | 91 | 38 | 0.0 | 0.0 | 0.00 | 0.00 | 0.00 | 33 | 1008.5 |
| 20260503230504 | 90 | 44 | 0.0 | 0.0 | 0.00 | 0.00 | 0.00 | 32 | 1008.5 |
| 20260503230004 | 90 | 125 | 0.0 | 0.0 | 0.00 | 0.00 | 0.00 | 32 | 1008.5 |
| 20260503225504 | 90 | 152 | 0.0 | 0.0 | 0.00 | 0.00 | 0.00 | 31 | 1008.5 |
| 20260503224504 | 90 | 260 | 0.0 | 0.0 | 0.00 | 0.00 | 0.00 | 34 | 1008.5 |
| 20260503224004 | 90 | 35 | 0.0 | 0.0 | 0.00 | 0.00 | 0.00 | 34 | 1008.5 |
| 20260503223004 | 90 | 300 | 0.0 | 0.0 | 0.00 | 0.00 | 0.00 | 34 | 1008.5 |
| 20260503222004 | 90 | 305 | 0.0 | 0.0 | 0.00 | 0.00 | 0.00 | 36 | 1008.5 |
| 20260503221504 | 90 | 305 | 0.0 | 0.0 | 0.00 | 0.00 | 0.00 | 37 | 1008.5 |
| 20260503221003 | 90 | 215 | 0.0 | 0.0 | 0.00 | 0.00 | 0.00 | 37 | 1008.5 |
| 20260503220505 | 90 | 43 | 0.0 | 0.0 | 0.00 | 0.00 | 0.00 | 38 | 1008.5 |
| 20260503220004 | 90 | 56 | 0.0 | 0.0 | 0.00 | 0.00 | 0.00 | 38 | 1008.5 |
| 20260503215004 | 89 | 35 | 0.0 | 0.0 | 0.00 | 0.00 | 0.00 | 40 | 1008.5 |
| 20260503214504 | 89 | 35 | 0.0 | 0.0 | 0.00 | 0.00 | 0.00 | 40 | 1008.5 |
| 20260503214003 | 88 | 35 | 0.0 | 0.0 | 0.00 | 0.00 | 0.00 | 40 | 1008.5 |